KD2GO Weather Reports


time (UTC)temp
C
wind
direction
speed
KPH
gust
KPH
rain 1hr
cm
rain 24hr
cm
rain mn
cm
humidity
%
barometer
mb
20260510231501 16 319 1.6 4.8 0.00 0.00 0.00 79 1014.1
20260510225959 17 320 1.6 4.8 0.00 0.00 0.00 76 1013.8
20260510224459 17 284 3.2 8.0 0.00 0.00 0.00 75 1013.8
20260510223000 17 262 6.4 11.3 0.00 0.00 0.00 73 1013.6
20260510220002 17 260 6.4 14.5 0.00 0.00 0.00 75 1013.7
20260510214500 17 302 6.4 12.9 0.00 0.03 0.00 76 1013.4
20260510212959 17 317 6.4 11.3 0.00 0.03 0.00 78 1013.6
20260510211500 16 300 4.8 11.3 0.00 0.03 0.00 80 1013.5
20260510205959 16 279 3.2 8.0 0.00 0.13 0.00 80 1013.5
20260510202958 17 309 6.4 12.9 0.00 0.13 0.00 75 1013.5
20260510201459 17 319 4.8 12.9 0.00 0.13 0.00 73 1013.3
20260510200001 18 301 6.4 16.1 0.00 0.13 0.00 74 1013.2
20260510194500 18 283 3.2 12.9 0.00 0.33 0.00 72 1013.4
20260510193000 18 311 6.4 16.1 0.00 0.33 0.00 70 1013.5
20260510191459 19 279 4.8 12.9 0.00 0.33 0.00 70 1013.3
20260510185958 20 306 6.4 12.9 0.00 0.61 0.00 67 1013.3
20260510184458 19 282 8.0 19.3 0.00 0.61 0.00 67 1013.5
20260510182959 20 293 6.4 20.9 0.00 0.61 0.00 64 1013.3
20260510181459 20 302 9.7 20.9 0.00 0.61 0.00 66 1013.5
20260510175959 20 352 9.7 19.3 0.00 0.81 0.00 66 1013.3
20260510174458 20 290 9.7 19.3 0.00 0.81 0.00 67 1013.4
20260510172958 20 301 9.7 25.7 0.00 0.81 0.00 66 1013.2
20260510171500 20 253 8.0 17.7 0.00 0.81 0.00 65 1013.1
20260510170001 20 259 11.3 22.5 0.00 0.81 0.00 64 1013.1
20260510164459 20 335 8.0 17.7 0.00 0.84 0.00 65 1013.0
20260510161459 19 262 6.4 14.5 0.00 0.84 0.00 72 1012.8
20260510155958 18 239 6.4 14.5 0.00 0.84 0.00 74 1013.0
20260510154459 18 309 3.2 11.3 0.00 0.84 0.00 77 1013.0
20260510152959 18 308 4.8 12.9 0.00 0.84 0.00 78 1013.0
20260510151459 17 319 1.6 9.7 0.00 0.84 0.00 83 1013.2
20260510144459 16 295 3.2 9.7 0.00 0.84 0.00 84 1013.1
20260510141458 15 132 3.2 9.7 0.00 0.84 0.00 40 1013.0
20260510135959 14 299 3.2 8.0 0.00 0.84 0.00 25 1012.9
20260510134458 13 158 3.2 4.8 0.00 0.84 0.00 24 1012.7
20260510132958 12 164 1.6 9.7 0.00 0.84 0.00 25 1012.8
20260510125957 12 131 1.6 6.4 0.00 0.84 0.00 25 1012.8
20260510124457 11 284 3.2 4.8 0.00 0.84 0.00 26 1013.1
20260510122957 11 283 1.6 4.8 0.00 0.84 0.00 26 1012.6
20260510115957 11 146 0.0 3.2 0.00 0.84 0.00 27 1012.1
20260510111457 10 344 3.2 4.8 0.00 0.84 0.00 28 1011.6
20260510104457 10 344 0.0 1.6 0.00 0.84 0.00 28 1011.6
20260510102957 9 83 0.0 4.8 0.00 0.84 0.00 29 1011.6
20260510101458 9 103 0.0 1.6 0.00 0.84 0.00 29 1011.4
20260510094458 10 103 0.0 3.2 0.00 0.84 0.00 29 1011.1
20260510092957 10 103 3.2 4.8 0.00 0.84 0.00 29 1011.1
20260510091458 10 277 0.0 1.6 0.00 0.84 0.00 29 1011.2
20260510085957 10 277 1.6 4.8 0.00 0.84 0.00 29 1011.3
20260510084458 10 277 1.6 4.8 0.00 0.84 0.00 29 1011.3
20260510081457 10 319 4.8 9.7 0.00 0.84 0.00 30 1011.5
20260510075957 9 303 4.8 11.3 0.00 0.84 0.00 30 1011.5
20260510074457 9 329 6.4 16.1 0.00 0.84 0.00 31 1011.5
20260510071457 9 310 0.0 0.0 0.00 0.84 0.00 32 1010.4
20260510065956 9 310 0.0 0.0 0.00 0.84 0.00 33 1010.6
20260510062957 10 310 0.0 3.2 0.00 0.84 0.00 33 1010.9
20260510061456 10 310 3.2 6.4 0.00 0.84 0.00 31 1011.1
20260510055957 10 121 1.6 3.2 0.00 0.84 0.00 31 1010.7
20260510054457 10 121 1.6 6.4 0.00 0.84 0.00 32 1010.5
20260510052957 10 121 1.6 4.8 0.00 0.84 0.00 34 1010.6
20260510051458 10 121 1.6 3.2 0.00 0.84 0.00 35 1010.6
20260510050000 10 121 1.6 3.2 0.00 0.84 0.00 37 1010.7
20260510044500 10 121 0.0 1.6 0.00 0.84 0.00 36 1010.9
20260510042959 10 121 0.0 0.0 0.00 0.84 0.00 41 1010.9
20260510041459 10 121 0.0 0.0 0.00 0.84 0.00 40 1010.7
20260510040005 10 121 0.0 0.0 0.00 0.84 0.00 40 1010.9
20260510034500 10 121 1.6 3.2 0.00 0.84 0.84 38 1010.9
20260510033001 10 121 0.0 0.0 0.00 0.84 0.84 42 1010.7
20260510031500 10 121 0.0 0.0 0.00 0.84 0.84 43 1010.6
20260510024501 10 121 0.0 1.6 0.00 0.84 0.84 42 1010.5
20260510023001 10 121 0.0 0.0 0.00 0.84 0.84 46 1010.5
20260510021501 10 121 0.0 1.6 0.00 0.84 0.84 47 1010.5
20260510020003 10 121 0.0 0.0 0.00 0.84 0.84 50 1010.5
20260510014500 10 121 0.0 0.0 0.00 0.84 0.84 50 1010.5
20260510012959 10 121 0.0 1.6 0.00 0.84 0.84 51 1010.5
20260510011500 10 121 1.6 3.2 0.00 0.84 0.84 53 1010.4
20260510010001 11 121 1.6 6.4 0.00 0.84 0.84 52 1010.3
20260510004459 11 121 3.2 4.8 0.00 0.84 0.84 54 1010.1
20260510001459 11 121 3.2 8.0 0.00 0.84 0.84 57 1009.6
20260509235959 11 107 4.8 6.4 0.00 0.84 0.84 61 1009.7